Simultaneous Nadir Overpasses (SNOs) Predictions

Prediction of SNOs between GOES-17 and NOAA-20 Satellite Orbit:

Table of predicted SNOs for the next 14.0 days since TLE Epoch: 5/28/2022
Index Date Time (GOES-17) GOES-17 Lat,Lon NOAA-20 Lat,Lon Distance(km) Time Diff (sec)
1 05/28/2022 10:52:50 0.00,-137.19 0.93,-141.38 477.38 80
2 05/29/2022 10:31:25 -0.01,-137.19 -0.05,-136.84 38.55 80
3 05/31/2022 22:37:17 0.01,-137.17 -0.08,-137.63 52.23 80
4 06/01/2022 22:15:51 0.01,-137.16 0.91,-133.09 463.06 80
5 06/03/2022 10:40:18 -0.01,-137.14 0.26,-138.36 138.83 80
6 06/04/2022 10:18:53 -0.01,-137.13 -0.73,-133.82 376.15 80
7 06/05/2022 22:43:29 0.01,-137.10 -0.44,-139.13 231.12 80
8 06/06/2022 22:22:04 0.01,-137.09 0.55,-134.60 283.66 80
9 06/08/2022 10:46:31 -0.00,-137.07 0.61,-139.87 319.06 80
10 06/09/2022 10:25:06 -0.01,-137.05 -0.38,-135.33 195.38 80
11 06/10/2022 22:47:02 0.00,-137.01 -0.78,-140.64 413.00 80
